{"data":{"norad_id":68295,"epoch":"2026-05-24T20:50:02.576832Z","epoch_age_seconds":89601,"freshness":"FRESH","line1":"1 68295U 26057B   26144.86808538  .00127972  00000+0  84410-3 0  9990","line2":"2 68295  97.2845 271.0443 0001290  84.0304 276.1108 15.75243513 10270","mean_motion":15.75243513,"eccentricity":0.000129,"inclination_deg":97.2845,"raan_deg":271.0443,"arg_perigee_deg":84.0304,"mean_anomaly_deg":276.1108,"bstar":0.0008441,"rev_number":1027,"period_min":91.414437711765,"perigee_km":343.0711784327,"apogee_km":344.80547386685,"semimajor_km":6722.0753261498,"source":"CELESTRAK","updated_at":"2026-05-25T13:38:21.915449Z"}}